Weather History for Palacios, TX

Change the Weather History Date:

Thursday, August 29, 2013

  Actual Average Record
Temperature  
Mean Temperature 84 °F -  
Max Temperature 93 °F 90 °F 98 °F (2005)
Min Temperature 78 °F 73 °F 60 °F (1992)
Cooling Degree Days 20    
Growing Degree Days 34 (Base 50)    
Moisture  
Dew Point 74 °F    
Average Humidity 68    
Maximum Humidity 90    
Minimum Humidity 48    
Precipitation  
Precipitation 0.00 in - - ()
Sea Level Pressure  
Sea Level Pressure 30.01 in    
Wind  
Wind Speed 6 mph (SSW)    
Max Wind Speed 13 mph    
Max Gust Speed -    
Visibility 10 miles    
Events      
Averages and records for this station are not official NWS values.
T = Trace of Precipitation, MM = Missing Value Source: NWS Daily Summary

Daily Weather History Graph

Daily Weather History Graph

Search for Another Location

Airport:

Trip Planner

Search our weather history database for the weather conditions in past years. The results will help you decide how hot, cold, wet, or windy it might be!

Date:

Astronomy

Aug. 29, 2013 Rise Set
Actual Time 7:01 AM CDT 7:49 PM CDT
Civil Twilight 6:37 AM CDT 8:13 PM CDT
Nautical Twilight 6:09 AM CDT 8:42 PM CDT
Astronomical Twilight 5:39 AM CDT 9:10 PM CDT
Moon 1:08 AM CDT (8/29) 3:04 PM CDT (8/29)
Length of Visible Light 13h 36m
Length of Day
12h 47m
Last Quarter, 38% of the Moon is Illuminated
Aug 29
Last Quarter
Sep 5
New
Sep 12
First Quarter
Sep 19
Full
Sep 26
Last Quarter

Hourly Weather History & Observations

Time (CDT) Temp. Heat Index Dew Point Humidity Pressure Visibility Wind Dir Wind Speed Gust Speed Precip Events Conditions
12:53 AM 80.1 °F 84.5 °F 73.9 °F 81% 30.02 in 10.0 mi South 5.8 mph - N/A   Clear
2:53 AM 81.0 °F 86.2 °F 73.9 °F 79% 30.03 in 10.0 mi South 5.8 mph - N/A   Mostly Cloudy
4:53 AM 82.0 °F 87.9 °F 73.9 °F 76% 30.03 in 10.0 mi South 4.6 mph - N/A   Scattered Clouds
5:53 AM 80.1 °F 84.5 °F 73.9 °F 81% 30.04 in 10.0 mi South 3.5 mph - N/A   Mostly Cloudy
6:53 AM 81.0 °F 86.2 °F 73.9 °F 79% 30.04 in 10.0 mi Calm Calm - N/A   Clear
7:53 AM 78.1 °F - 75.0 °F 90% 30.06 in 5.0 mi Calm Calm - N/A   Clear
8:53 AM 82.9 °F 91.8 °F 77.0 °F 82% 30.07 in 10.0 mi West 3.5 mph - N/A   Partly Cloudy
9:53 AM 84.9 °F 94.1 °F 75.9 °F 74% 30.07 in 10.0 mi Variable 3.5 mph - N/A   Scattered Clouds
10:53 AM 88.0 °F 96.5 °F 73.9 °F 63% 30.06 in 10.0 mi NW 5.8 mph - N/A   Clear
11:53 AM 91.0 °F 98.2 °F 72.0 °F 53% 30.06 in 10.0 mi Calm Calm - N/A   Clear
12:53 PM 91.9 °F 98.4 °F 71.1 °F 50% 30.04 in 10.0 mi Calm Calm - N/A   Partly Cloudy
1:53 PM 91.0 °F 100.4 °F 73.9 °F 57% 30.02 in 10.0 mi SSW 9.2 mph - N/A   Partly Cloudy
2:53 PM 91.9 °F 98.4 °F 71.1 °F 50% 30.00 in 9.0 mi South 10.4 mph - N/A   Clear
3:53 PM 91.9 °F 97.4 °F 70.0 °F 48% 29.98 in 10.0 mi South 8.1 mph - N/A   Clear
4:53 PM 90.0 °F 99.0 °F 73.9 °F 59% 29.96 in 10.0 mi South 11.5 mph - N/A   Clear
5:53 PM 89.1 °F 98.0 °F 73.9 °F 61% 29.96 in 10.0 mi South 12.7 mph - N/A   Mostly Cloudy
6:53 PM 87.1 °F 94.5 °F 73.0 °F 63% 29.96 in 10.0 mi South 11.5 mph - N/A   Clear
7:53 PM 86.0 °F 93.8 °F 73.9 °F 67% 29.96 in 10.0 mi South 8.1 mph - N/A   Clear
8:53 PM 84.9 °F 92.1 °F 73.9 °F 69% 29.97 in 10.0 mi South 9.2 mph - N/A   Clear
9:53 PM 84.9 °F 94.1 °F 75.9 °F 74% 29.98 in 10.0 mi SSW 9.2 mph - N/A   Clear
10:53 PM 84.9 °F 94.1 °F 75.9 °F 74% 29.98 in 10.0 mi South 10.4 mph - N/A   Clear
11:53 PM 84.0 °F 92.6 °F 75.9 °F 76% 29.98 in 10.0 mi South 5.8 mph - N/A   Clear